Time,TemperatureF,DewpointF,PressureIn,WindDirection,WindDirectionDegrees,WindSpeedMPH,WindSpeedGustMPH,Humidity,HourlyPrecipIn,Conditions,Clouds,dailyrainin,SoftwareType,DateUTC
2013-10-13 00:57:00,61.3,61.3,30.14,WSW,242,0.0,0.0,100,0.00,,,0.00,Meteorologica,2013-10-13 04:57:00,
2013-10-13 01:00:00,65.4,61.0,30.23,NE,56,0.0,0.0,85,0.00,,,0.00,Meteorologica,2013-10-13 05:00:00,
2013-10-13 01:01:00,65.3,60.8,30.22,NE,56,0.0,0.0,85,0.00,,,0.00,Meteorologica,2013-10-13 05:01:00,
2013-10-13 01:02:00,61.3,61.3,30.14,WSW,242,0.0,0.0,100,0.00,,,0.00,Meteorologica,2013-10-13 05:02:00,
2013-10-13 01:03:00,65.6,61.0,30.22,NE,56,0.0,0.0,85,0.00,,,0.00,Meteorologica,2013-10-13 05:03:00,
2013-10-13 01:04:00,65.6,61.0,30.22,NE,56,0.0,0.0,84,0.00,,,0.00,Meteorologica,2013-10-13 05:04:00,
2013-10-13 01:05:00,65.6,60.9,30.22,NE,56,0.0,0.0,84,0.00,,,0.00,Meteorologica,2013-10-13 05:05:00,
2013-10-13 01:06:00,65.6,60.8,30.22,NE,56,0.0,0.0,84,0.00,,,0.00,Meteorologica,2013-10-13 05:06:00,
2013-10-13 01:07:00,61.3,61.3,30.14,WSW,242,0.0,0.0,100,0.00,,,0.00,Meteorologica,2013-10-13 05:07:00,
2013-10-13 01:08:00,65.7,60.8,30.22,NE,56,0.0,0.0,84,0.00,,,0.00,Meteorologica,2013-10-13 05:08:00,
2013-10-13 01:09:00,65.7,60.8,30.22,NE,56,0.0,0.0,84,0.00,,,0.00,Meteorologica,2013-10-13 05:09:00,
2013-10-13 01:10:00,65.8,60.9,30.22,NE,56,0.0,0.0,84,0.00,,,0.00,Meteorologica,2013-10-13 05:10:00,
2013-10-13 01:11:00,65.8,60.8,30.22,NE,56,0.0,0.0,83,0.00,,,0.00,Meteorologica,2013-10-13 05:11:00,
2013-10-13 01:12:00,61.3,61.3,30.14,WSW,242,0.0,0.0,100,0.00,,,0.00,Meteorologica,2013-10-13 05:12:00,
2013-10-13 01:13:00,65.8,60.8,30.22,NE,56,0.0,0.0,83,0.00,,,0.00,Meteorologica,2013-10-13 05:13:00,
2013-10-13 01:14:00,65.8,60.7,30.22,NE,56,0.0,0.0,83,0.00,,,0.00,Meteorologica,2013-10-13 05:14:00,
2013-10-13 01:15:00,65.8,60.7,30.22,NE,56,0.0,0.0,83,0.00,,,0.00,Meteorologica,2013-10-13 05:15:00,
2013-10-13 01:16:00,65.7,60.6,30.22,NE,56,0.0,0.0,83,0.00,,,0.00,Meteorologica,2013-10-13 05:16:00,
2013-10-13 01:17:00,61.0,61.0,30.14,WSW,242,0.0,0.0,100,0.00,,,0.00,Meteorologica,2013-10-13 05:17:00,
2013-10-13 01:18:00,65.7,60.6,30.22,NE,56,0.0,0.0,83,0.00,,,0.00,Meteorologica,2013-10-13 05:18:00,
2013-10-13 01:19:00,65.8,60.7,30.22,NE,56,0.0,0.0,83,0.00,,,0.00,Meteorologica,2013-10-13 05:19:00,
2013-10-13 01:20:00,65.7,60.6,30.22,NE,56,0.0,0.0,83,0.00,,,0.00,Meteorologica,2013-10-13 05:20:00,
2013-10-13 01:21:00,65.7,60.6,30.22,NE,56,0.0,0.0,83,0.00,,,0.00,Meteorologica,2013-10-13 05:21:00,
2013-10-13 01:22:00,60.9,60.9,30.15,WSW,242,0.0,0.0,100,0.00,,,0.00,Meteorologica,2013-10-13 05:22:00,
2013-10-13 01:23:00,65.8,60.7,30.22,NE,56,0.0,0.0,83,0.00,,,0.00,Meteorologica,2013-10-13 05:23:00,
2013-10-13 01:24:00,65.7,60.6,30.22,NE,56,0.0,0.0,83,0.00,,,0.00,Meteorologica,2013-10-13 05:24:00,
2013-10-13 01:25:00,65.7,60.6,30.22,NE,56,0.0,0.0,83,0.00,,,0.00,Meteorologica,2013-10-13 05:25:00,
2013-10-13 01:26:00,65.7,60.6,30.21,NE,56,0.0,0.0,83,0.00,,,0.00,Meteorologica,2013-10-13 05:26:00,
2013-10-13 01:27:00,60.9,60.9,30.15,WSW,242,0.0,0.0,100,0.00,,,0.00,Meteorologica,2013-10-13 05:27:00,
2013-10-13 01:28:00,65.6,60.6,30.22,NE,56,0.0,0.0,83,0.00,,,0.00,Meteorologica,2013-10-13 05:28:00,
2013-10-13 01:29:00,65.5,60.5,30.22,NE,56,0.0,0.0,83,0.00,,,0.00,Meteorologica,2013-10-13 05:29:00,
2013-10-13 01:30:00,65.7,60.6,30.22,NE,56,0.0,0.0,83,0.00,,,0.00,Meteorologica,2013-10-13 05:30:00,
2013-10-13 01:31:00,65.7,60.6,30.21,NE,56,0.0,0.0,83,0.00,,,0.00,Meteorologica,2013-10-13 05:31:00,
2013-10-13 01:32:00,65.6,60.5,30.22,NE,56,0.0,0.0,83,0.00,,,0.00,Meteorologica,2013-10-13 05:32:00,
2013-10-13 01:33:00,60.5,60.5,30.15,WSW,242,0.0,0.0,100,0.00,,,0.00,Meteorologica,2013-10-13 05:33:00,
2013-10-13 01:34:00,65.7,60.6,30.22,NE,56,0.0,0.0,83,0.00,,,0.00,Meteorologica,2013-10-13 05:34:00,
2013-10-13 01:35:00,65.7,60.7,30.22,NE,56,0.0,0.0,83,0.00,,,0.00,Meteorologica,2013-10-13 05:35:00,
2013-10-13 01:36:00,65.7,60.6,30.22,NE,56,0.0,0.0,83,0.00,,,0.00,Meteorologica,2013-10-13 05:36:00,
2013-10-13 01:37:00,65.5,60.4,30.22,NE,56,0.0,0.0,83,0.00,,,0.00,Meteorologica,2013-10-13 05:37:00,
2013-10-13 01:38:00,60.7,60.7,30.15,WSW,242,0.0,0.0,100,0.00,,,0.00,Meteorologica,2013-10-13 05:38:00,
2013-10-13 01:39:00,65.6,60.6,30.22,NE,56,0.0,0.0,83,0.00,,,0.00,Meteorologica,2013-10-13 05:39:00,
2013-10-13 01:40:00,65.6,60.6,30.22,NE,56,0.0,0.0,83,0.00,,,0.00,Meteorologica,2013-10-13 05:40:00,
2013-10-13 01:41:00,65.6,60.6,30.22,NE,56,0.0,0.0,83,0.00,,,0.00,Meteorologica,2013-10-13 05:41:00,
2013-10-13 01:42:00,65.6,60.7,30.22,NE,56,0.0,0.0,84,0.00,,,0.00,Meteorologica,2013-10-13 05:42:00,
2013-10-13 01:43:00,60.6,60.6,30.16,WSW,242,0.0,0.0,100,0.00,,,0.00,Meteorologica,2013-10-13 05:43:00,
2013-10-13 01:44:00,65.7,60.9,30.22,NE,56,0.0,0.0,84,0.00,,,0.00,Meteorologica,2013-10-13 05:44:00,
2013-10-13 01:45:00,65.6,60.8,30.22,NE,56,0.0,0.0,84,0.00,,,0.00,Meteorologica,2013-10-13 05:45:00,
2013-10-13 01:46:00,65.6,60.8,30.22,NE,56,0.0,0.0,84,0.00,,,0.00,Meteorologica,2013-10-13 05:46:00,
2013-10-13 01:47:00,65.5,60.7,30.22,NE,56,0.0,0.0,84,0.00,,,0.00,Meteorologica,2013-10-13 05:47:00,
2013-10-13 01:48:00,60.4,60.4,30.16,WSW,242,0.0,0.0,100,0.00,,,0.00,Meteorologica,2013-10-13 05:48:00,
2013-10-13 01:49:00,65.5,60.9,30.22,NE,56,0.0,0.0,84,0.00,,,0.00,Meteorologica,2013-10-13 05:49:00,
2013-10-13 01:50:00,65.5,61.0,30.22,NE,56,0.0,0.0,85,0.00,,,0.00,Meteorologica,2013-10-13 05:50:00,
2013-10-13 01:51:00,65.4,61.0,30.22,NE,56,0.0,0.0,85,0.00,,,0.00,Meteorologica,2013-10-13 05:51:00,
2013-10-13 01:52:00,65.6,61.2,30.22,NE,56,0.0,0.0,85,0.00,,,0.00,Meteorologica,2013-10-13 05:52:00,
2013-10-13 01:53:00,60.4,60.4,30.16,WSW,242,0.0,0.0,100,0.00,,,0.00,Meteorologica,2013-10-13 05:53:00,
2013-10-13 01:54:00,65.5,61.1,30.22,NE,56,0.0,0.0,85,0.00,,,0.00,Meteorologica,2013-10-13 05:54:00,
2013-10-13 01:55:00,65.4,61.0,30.22,NE,56,0.0,0.0,85,0.00,,,0.00,Meteorologica,2013-10-13 05:55:00,
2013-10-13 01:56:00,65.3,60.9,30.22,NE,56,0.0,0.0,85,0.00,,,0.00,Meteorologica,2013-10-13 05:56:00,
2013-10-13 01:57:00,65.4,61.0,30.22,NE,56,0.0,0.0,85,0.00,,,0.00,Meteorologica,2013-10-13 05:57:00,
2013-10-13 01:58:00,60.2,60.2,30.16,WSW,242,0.0,0.0,100,0.00,,,0.00,Meteorologica,2013-10-13 05:58:00,
2013-10-13 01:59:00,65.4,61.2,30.22,NE,56,0.0,0.0,86,0.00,,,0.00,Meteorologica,2013-10-13 05:59:00,
2013-10-13 02:03:00,60.1,60.1,30.16,WSW,242,0.0,0.0,100,0.00,,,0.00,Meteorologica,2013-10-13 06:03:00,
2013-10-13 02:09:00,60.1,60.1,30.16,WSW,242,0.0,0.0,100,0.00,,,0.00,Meteorologica,2013-10-13 06:09:00,
2013-10-13 02:14:00,59.9,59.9,30.16,WSW,242,0.0,0.0,100,0.00,,,0.00,Meteorologica,2013-10-13 06:14:00,
2013-10-13 02:19:00,59.8,59.8,30.16,WSW,242,0.0,0.0,100,0.00,,,0.00,Meteorologica,2013-10-13 06:19:00,
2013-10-13 02:24:00,59.7,59.7,30.16,WSW,242,0.0,0.0,100,0.00,,,0.00,Meteorologica,2013-10-13 06:24:00,
2013-10-13 02:30:00,59.9,59.9,30.16,WSW,242,0.0,0.0,100,0.00,,,0.00,Meteorologica,2013-10-13 06:30:00,
2013-10-13 02:35:00,59.6,59.6,30.16,WSW,242,0.0,0.0,100,0.00,,,0.00,Meteorologica,2013-10-13 06:35:00,
2013-10-13 02:40:00,59.6,59.6,30.16,WSW,242,0.0,0.0,100,0.00,,,0.00,Meteorologica,2013-10-13 06:40:00,
2013-10-13 02:45:00,59.8,59.8,30.16,WSW,242,0.0,0.0,100,0.00,,,0.00,Meteorologica,2013-10-13 06:45:00,
2013-10-13 02:50:00,59.7,59.7,30.16,WSW,242,0.0,0.0,100,0.00,,,0.00,Meteorologica,2013-10-13 06:50:00,
2013-10-13 02:56:00,59.5,59.5,30.16,WSW,242,0.0,0.0,100,0.00,,,0.00,Meteorologica,2013-10-13 06:56:00,
2013-10-13 03:01:00,59.6,59.6,30.16,WSW,242,0.0,0.0,100,0.00,,,0.00,Meteorologica,2013-10-13 07:01:00,
2013-10-13 03:06:00,59.4,59.4,30.16,WSW,242,0.0,0.0,100,0.00,,,0.00,Meteorologica,2013-10-13 07:06:00,
2013-10-13 03:12:00,59.4,59.4,30.16,WSW,242,0.0,0.0,100,0.00,,,0.00,Meteorologica,2013-10-13 07:12:00,
2013-10-13 03:17:00,59.4,59.4,30.16,WSW,242,0.0,0.0,100,0.00,,,0.00,Meteorologica,2013-10-13 07:17:00,
2013-10-13 03:22:00,59.5,59.5,30.16,WSW,242,0.0,0.0,100,0.00,,,0.00,Meteorologica,2013-10-13 07:22:00,
2013-10-13 03:27:00,59.5,59.5,30.16,WSW,242,0.0,0.0,100,0.00,,,0.00,Meteorologica,2013-10-13 07:27:00,
2013-10-13 03:32:00,59.2,59.2,30.16,WSW,242,0.0,0.0,100,0.00,,,0.00,Meteorologica,2013-10-13 07:32:00,
2013-10-13 03:37:00,59.3,59.3,30.16,WSW,242,0.0,0.0,100,0.00,,,0.00,Meteorologica,2013-10-13 07:37:00,
2013-10-13 03:42:00,59.2,59.2,30.16,WSW,242,0.0,0.0,100,0.00,,,0.00,Meteorologica,2013-10-13 07:42:00,
2013-10-13 03:48:00,59.1,59.1,30.16,WSW,242,0.0,0.0,100,0.00,,,0.00,Meteorologica,2013-10-13 07:48:00,
2013-10-13 03:53:00,59.0,59.0,30.16,WSW,242,0.0,0.0,100,0.00,,,0.00,Meteorologica,2013-10-13 07:53:00,
2013-10-13 03:58:00,59.0,59.0,30.16,WSW,242,0.0,0.0,100,0.00,,,0.00,Meteorologica,2013-10-13 07:58:00,
2013-10-13 05:00:00,58.3,58.3,30.16,WSW,242,0.0,0.0,100,0.00,,,0.00,Meteorologica,2013-10-13 09:00:00,
2013-10-13 05:05:00,58.2,58.2,30.16,WSW,242,0.0,0.0,100,0.00,,,0.00,Meteorologica,2013-10-13 09:05:00,
2013-10-13 05:10:00,58.1,58.1,30.17,WSW,242,0.0,0.0,100,0.00,,,0.00,Meteorologica,2013-10-13 09:10:00,
2013-10-13 05:15:00,57.9,57.9,30.17,WSW,242,0.0,0.0,100,0.00,,,0.00,Meteorologica,2013-10-13 09:15:00,
2013-10-13 05:20:00,57.8,57.8,30.17,WSW,242,0.0,0.0,100,0.00,,,0.00,Meteorologica,2013-10-13 09:20:00,
2013-10-13 05:26:00,57.6,57.6,30.17,WSW,242,0.0,0.0,100,0.00,,,0.00,Meteorologica,2013-10-13 09:26:00,
2013-10-13 05:31:00,57.6,57.6,30.17,WSW,242,0.0,0.0,100,0.00,,,0.00,Meteorologica,2013-10-13 09:31:00,
2013-10-13 05:36:00,57.7,57.7,30.17,WSW,242,0.0,0.0,100,0.00,,,0.00,Meteorologica,2013-10-13 09:36:00,
2013-10-13 05:42:00,57.6,57.6,30.18,WSW,242,0.0,0.0,100,0.00,,,0.00,Meteorologica,2013-10-13 09:42:00,
2013-10-13 05:47:00,57.5,57.5,30.18,WSW,242,0.0,0.0,100,0.00,,,0.00,Meteorologica,2013-10-13 09:47:00,
2013-10-13 05:52:00,57.4,57.4,30.18,WSW,242,0.0,0.0,100,0.00,,,0.00,Meteorologica,2013-10-13 09:52:00,
2013-10-13 05:57:00,57.3,57.3,30.19,WSW,242,0.0,0.0,100,0.00,,,0.00,Meteorologica,2013-10-13 09:57:00,
2013-10-13 06:03:00,57.3,57.3,30.19,WSW,242,0.0,0.0,100,0.00,,,0.00,Meteorologica,2013-10-13 10:03:00,
2013-10-13 06:08:00,57.3,57.3,30.19,WSW,242,0.0,0.0,100,0.00,,,0.00,Meteorologica,2013-10-13 10:08:00,
2013-10-13 06:13:00,57.2,57.2,30.19,WSW,242,0.0,0.0,100,0.00,,,0.00,Meteorologica,2013-10-13 10:13:00,
2013-10-13 06:18:00,57.2,57.2,30.19,WSW,242,0.0,0.0,100,0.00,,,0.00,Meteorologica,2013-10-13 10:18:00,
2013-10-13 06:23:00,57.3,57.3,30.19,WSW,242,0.0,0.0,100,0.00,,,0.00,Meteorologica,2013-10-13 10:23:00,
2013-10-13 06:28:00,57.3,57.3,30.19,WSW,242,0.0,0.0,100,0.00,,,0.00,Meteorologica,2013-10-13 10:28:00,
2013-10-13 06:34:00,57.3,57.3,30.19,WSW,242,0.0,0.0,100,0.00,,,0.00,Meteorologica,2013-10-13 10:34:00,
2013-10-13 06:40:00,57.2,57.2,30.19,WSW,242,0.0,0.0,100,0.00,,,0.00,Meteorologica,2013-10-13 10:40:00,
2013-10-13 06:45:00,57.2,57.2,30.19,WSW,242,0.0,0.0,100,0.00,,,0.00,Meteorologica,2013-10-13 10:45:00,
2013-10-13 06:50:00,57.2,57.2,30.19,WSW,242,0.0,0.0,100,0.00,,,0.00,Meteorologica,2013-10-13 10:50:00,
2013-10-13 06:55:00,57.2,57.2,30.19,WSW,242,0.0,0.0,100,0.00,,,0.00,Meteorologica,2013-10-13 10:55:00,
2013-10-13 07:01:00,57.2,57.2,30.19,WSW,242,0.0,0.0,100,0.00,,,0.00,Meteorologica,2013-10-13 11:01:00,
2013-10-13 07:06:00,57.2,57.2,30.19,WSW,242,0.0,0.0,100,0.00,,,0.00,Meteorologica,2013-10-13 11:06:00,
2013-10-13 07:12:00,57.1,57.1,30.19,WSW,242,0.0,0.0,100,0.00,,,0.00,Meteorologica,2013-10-13 11:12:00,
2013-10-13 07:17:00,57.0,57.0,30.19,WSW,242,0.0,0.0,100,0.00,,,0.00,Meteorologica,2013-10-13 11:17:00,
2013-10-13 07:23:00,57.0,57.0,30.20,WSW,242,0.0,0.0,100,0.00,,,0.00,Meteorologica,2013-10-13 11:23:00,
2013-10-13 07:29:00,56.9,56.9,30.20,WSW,242,0.0,0.0,100,0.00,,,0.00,Meteorologica,2013-10-13 11:29:00,
2013-10-13 07:34:00,56.9,56.9,30.20,WSW,242,0.0,0.0,100,0.00,,,0.00,Meteorologica,2013-10-13 11:34:00,
2013-10-13 07:39:00,56.8,56.8,30.20,WSW,242,0.0,0.0,100,0.00,,,0.00,Meteorologica,2013-10-13 11:39:00,
2013-10-13 07:44:00,56.8,56.8,30.20,WSW,242,0.0,0.0,100,0.00,,,0.00,Meteorologica,2013-10-13 11:44:00,
2013-10-13 07:49:00,56.8,56.8,30.20,WSW,242,0.0,0.0,100,0.00,,,0.00,Meteorologica,2013-10-13 11:49:00,
2013-10-13 07:54:00,56.7,56.7,30.20,WSW,242,0.0,0.0,100,0.00,,,0.00,Meteorologica,2013-10-13 11:54:00,
2013-10-13 07:59:00,56.5,56.5,30.21,WSW,242,0.0,0.0,100,0.00,,,0.00,Meteorologica,2013-10-13 11:59:00,
2013-10-13 08:04:00,56.5,56.5,30.21,WSW,242,0.0,0.0,100,0.00,,,0.00,Meteorologica,2013-10-13 12:04:00,
2013-10-13 09:00:00,57.7,57.7,30.22,WSW,242,0.0,0.0,100,0.00,,,0.00,Meteorologica,2013-10-13 13:00:00,
2013-10-13 09:05:00,58.1,58.1,30.22,WSW,242,0.0,0.0,100,0.00,,,0.00,Meteorologica,2013-10-13 13:05:00,
2013-10-13 09:10:00,58.3,58.3,30.22,WSW,242,0.0,0.0,100,0.00,,,0.00,Meteorologica,2013-10-13 13:10:00,
2013-10-13 09:15:00,58.4,58.4,30.23,WSW,242,0.0,0.0,100,0.00,,,0.00,Meteorologica,2013-10-13 13:15:00,
2013-10-13 09:21:00,58.9,58.9,30.23,WSW,242,0.0,0.0,100,0.00,,,0.00,Meteorologica,2013-10-13 13:21:00,
2013-10-13 09:25:00,59.1,59.1,30.23,WSW,242,0.0,0.0,100,0.00,,,0.00,Meteorologica,2013-10-13 13:25:00,
2013-10-13 09:31:00,59.4,59.4,30.23,WSW,242,0.0,0.0,100,0.00,,,0.00,Meteorologica,2013-10-13 13:31:00,
2013-10-13 09:36:00,59.6,59.7,30.23,WSW,242,0.0,0.0,100,0.00,,,0.00,Meteorologica,2013-10-13 13:36:00,
2013-10-13 09:41:00,60.0,60.0,30.23,WSW,242,0.0,0.0,100,0.00,,,0.00,Meteorologica,2013-10-13 13:41:00,
2013-10-13 09:46:00,60.4,60.4,30.23,WSW,242,0.0,0.0,100,0.00,,,0.00,Meteorologica,2013-10-13 13:46:00,
2013-10-13 09:51:00,60.8,60.8,30.23,WSW,242,0.0,0.0,100,0.00,,,0.00,Meteorologica,2013-10-13 13:51:00,
2013-10-13 09:57:00,61.2,61.2,30.24,WSW,242,0.0,0.0,100,0.00,,,0.00,Meteorologica,2013-10-13 13:57:00,
2013-10-13 10:02:00,61.7,61.7,30.24,WSW,242,0.0,0.0,100,0.00,,,0.00,Meteorologica,2013-10-13 14:02:00,
2013-10-13 10:07:00,62.2,62.2,30.24,WSW,242,0.0,0.0,100,0.00,,,0.00,Meteorologica,2013-10-13 14:07:00,
2013-10-13 10:12:00,62.7,62.7,30.24,WSW,242,0.0,0.0,100,0.00,,,0.00,Meteorologica,2013-10-13 14:12:00,
2013-10-13 10:17:00,63.1,63.1,30.24,WSW,242,0.0,0.0,100,0.00,,,0.00,Meteorologica,2013-10-13 14:17:00,
2013-10-13 10:23:00,63.6,63.6,30.24,WSW,242,0.0,0.0,100,0.00,,,0.00,Meteorologica,2013-10-13 14:23:00,
2013-10-13 10:28:00,64.3,64.3,30.24,WSW,242,0.0,0.0,100,0.00,,,0.00,Meteorologica,2013-10-13 14:28:00,
2013-10-13 10:33:00,64.8,64.8,30.24,WSW,242,0.0,0.0,100,0.00,,,0.00,Meteorologica,2013-10-13 14:33:00,
2013-10-13 10:38:00,65.1,64.4,30.24,WSW,242,0.0,0.0,97,0.00,,,0.00,Meteorologica,2013-10-13 14:38:00,
2013-10-13 10:43:00,65.6,63.0,30.25,WSW,242,0.0,0.0,91,0.00,,,0.00,Meteorologica,2013-10-13 14:43:00,
2013-10-13 10:48:00,66.0,61.5,30.25,WSW,242,0.0,0.0,85,0.00,,,0.00,Meteorologica,2013-10-13 14:48:00,
2013-10-13 10:53:00,66.5,61.0,30.25,WSW,242,0.0,0.0,82,0.00,,,0.00,Meteorologica,2013-10-13 14:53:00,
2013-10-13 10:58:00,67.1,60.7,30.25,WSW,242,0.0,0.0,79,0.00,,,0.00,Meteorologica,2013-10-13 14:58:00,
2013-10-13 11:04:00,67.8,60.8,30.25,WSW,242,0.0,0.0,78,0.00,,,0.00,Meteorologica,2013-10-13 15:04:00,
2013-10-13 11:09:00,68.2,61.2,30.25,WSW,242,0.0,0.0,78,0.00,,,0.00,Meteorologica,2013-10-13 15:09:00,
2013-10-13 11:14:00,68.6,61.8,30.25,WSW,242,0.0,0.0,78,0.00,,,0.00,Meteorologica,2013-10-13 15:14:00,
2013-10-13 11:19:00,68.7,61.6,30.25,WSW,242,0.0,0.0,77,0.00,,,0.00,Meteorologica,2013-10-13 15:19:00,
2013-10-13 11:24:00,69.1,61.3,30.25,WSW,242,0.0,0.0,76,0.00,,,0.00,Meteorologica,2013-10-13 15:24:00,
2013-10-13 11:29:00,69.4,61.2,30.25,WSW,242,0.0,0.0,74,0.00,,,0.00,Meteorologica,2013-10-13 15:29:00,
2013-10-13 11:34:00,69.5,61.0,30.25,WSW,242,0.0,0.0,74,0.00,,,0.00,Meteorologica,2013-10-13 15:34:00,
2013-10-13 11:39:00,69.9,60.4,30.25,WSW,242,0.0,0.0,71,0.00,,,0.00,Meteorologica,2013-10-13 15:39:00,
2013-10-13 11:44:00,70.2,60.3,30.25,ENE,77,3.2,0.0,70,0.00,,,0.00,Meteorologica,2013-10-13 15:44:00,
2013-10-13 11:49:00,70.5,60.1,30.25,ENE,69,0.8,4.9,69,0.00,,,0.00,Meteorologica,2013-10-13 15:49:00,
2013-10-13 11:54:00,70.9,60.3,30.25,ENE,59,0.0,4.0,68,0.00,,,0.00,Meteorologica,2013-10-13 15:54:00,
2013-10-13 11:59:00,71.3,60.0,30.25,ESE,120,1.4,0.0,67,0.00,,,0.00,Meteorologica,2013-10-13 15:59:00,
2013-10-13 12:04:00,71.7,60.4,30.25,ENE,73,0.0,4.5,67,0.00,,,0.00,Meteorologica,2013-10-13 16:04:00,
2013-10-13 12:09:00,72.0,60.6,30.25,SW,215,0.6,0.0,66,0.00,,,0.00,Meteorologica,2013-10-13 16:09:00,
2013-10-13 12:14:00,72.2,59.9,30.25,SW,215,0.0,2.1,64,0.00,,,0.00,Meteorologica,2013-10-13 16:14:00,
2013-10-13 12:19:00,72.3,59.4,30.25,NNE,25,1.1,0.0,63,0.00,,,0.00,Meteorologica,2013-10-13 16:19:00,
2013-10-13 12:24:00,72.5,59.5,30.25,NE,49,0.0,1.9,63,0.00,,,0.00,Meteorologica,2013-10-13 16:24:00,
2013-10-13 12:29:00,72.7,60.0,30.24,North,351,0.0,1.0,64,0.00,,,0.00,Meteorologica,2013-10-13 16:29:00,
2013-10-13 12:34:00,73.0,59.5,30.24,NNE,18,0.0,6.0,62,0.00,,,0.00,Meteorologica,2013-10-13 16:34:00,
2013-10-13 12:39:00,73.3,59.5,30.24,NNE,18,0.0,1.3,61,0.00,,,0.00,Meteorologica,2013-10-13 16:39:00,
2013-10-13 12:44:00,73.6,59.2,30.24,NNE,18,0.0,0.0,60,0.00,,,0.00,Meteorologica,2013-10-13 16:44:00,
2013-10-13 12:49:00,73.8,59.2,30.24,North,0,0.6,2.9,60,0.00,,,0.00,Meteorologica,2013-10-13 16:49:00,
2013-10-13 12:55:00,74.0,58.9,30.24,NE,38,2.4,2.4,58,0.00,,,0.00,Meteorologica,2013-10-13 16:55:00,
2013-10-13 13:00:00,74.2,58.1,30.24,NE,39,0.0,4.6,56,0.00,,,0.00,Meteorologica,2013-10-13 17:00:00,
2013-10-13 13:05:00,74.4,57.4,30.24,NE,38,1.7,3.3,55,0.00,,,0.00,Meteorologica,2013-10-13 17:05:00,
2013-10-13 13:10:00,74.6,57.4,30.24,NNE,15,0.0,4.2,54,0.00,,,0.00,Meteorologica,2013-10-13 17:10:00,
2013-10-13 13:15:00,74.9,57.5,30.24,North,11,0.0,4.0,54,0.00,,,0.00,Meteorologica,2013-10-13 17:15:00,
2013-10-13 13:20:00,75.0,56.1,30.23,NNE,30,2.4,3.5,51,0.00,,,0.00,Meteorologica,2013-10-13 17:20:00,
2013-10-13 13:25:00,75.2,56.5,30.23,NE,46,0.2,4.6,52,0.00,,,0.00,Meteorologica,2013-10-13 17:25:00,
2013-10-13 13:30:00,75.3,56.7,30.23,NNE,32,0.0,5.1,52,0.00,,,0.00,Meteorologica,2013-10-13 17:30:00,
2013-10-13 13:35:00,75.4,56.3,30.23,NNE,28,1.7,2.0,51,0.00,,,0.00,Meteorologica,2013-10-13 17:35:00,
2013-10-13 13:40:00,75.8,56.1,30.22,WNW,282,0.3,4.2,50,0.00,,,0.00,Meteorologica,2013-10-13 17:40:00,
2013-10-13 13:45:00,75.7,56.1,30.22,ENE,74,0.5,4.0,50,0.00,,,0.00,Meteorologica,2013-10-13 17:45:00,
2013-10-13 13:50:00,75.9,56.4,30.22,ENE,74,0.0,4.4,50,0.00,,,0.00,Meteorologica,2013-10-13 17:50:00,
2013-10-13 13:55:00,76.1,56.1,30.22,NW,304,0.0,3.8,49,0.00,,,0.00,Meteorologica,2013-10-13 17:55:00,
2013-10-13 14:01:00,76.3,56.1,30.21,NNE,32,0.0,3.7,49,0.00,,,0.00,Meteorologica,2013-10-13 18:01:00,
2013-10-13 14:06:00,76.1,56.0,30.21,ENE,64,0.0,6.2,49,0.00,,,0.00,Meteorologica,2013-10-13 18:06:00,
2013-10-13 14:11:00,76.3,56.1,30.21,NNE,19,1.9,5.1,49,0.00,,,0.00,Meteorologica,2013-10-13 18:11:00,
2013-10-13 14:16:00,76.6,56.4,30.21,NE,39,0.0,4.8,49,0.00,,,0.00,Meteorologica,2013-10-13 18:16:00,
2013-10-13 14:21:00,76.6,56.0,30.21,SSW,213,0.0,2.9,48,0.00,,,0.00,Meteorologica,2013-10-13 18:21:00,
2013-10-13 14:26:00,76.6,56.4,30.20,SSW,213,0.0,2.8,49,0.00,,,0.00,Meteorologica,2013-10-13 18:26:00,
2013-10-13 14:31:00,76.8,56.1,30.20,NE,55,0.0,0.0,48,0.00,,,0.00,Meteorologica,2013-10-13 18:31:00,
2013-10-13 14:36:00,77.2,56.6,30.20,NE,45,0.7,3.2,49,0.00,,,0.00,Meteorologica,2013-10-13 18:36:00,
2013-10-13 14:41:00,77.4,56.5,30.20,ENE,77,1.1,3.5,48,0.00,,,0.00,Meteorologica,2013-10-13 18:41:00,
2013-10-13 14:46:00,77.8,56.2,30.20,NNE,32,0.3,4.2,47,0.00,,,0.00,Meteorologica,2013-10-13 18:46:00,
2013-10-13 14:51:00,77.7,56.3,30.20,ENE,62,0.0,7.6,47,0.00,,,0.00,Meteorologica,2013-10-13 18:51:00,
2013-10-13 14:56:00,77.8,55.3,30.20,NE,35,0.6,2.9,45,0.00,,,0.00,Meteorologica,2013-10-13 18:56:00,
2013-10-13 15:01:00,77.7,55.2,30.19,NE,47,0.0,2.7,45,0.00,,,0.00,Meteorologica,2013-10-13 19:01:00,
2013-10-13 15:06:00,77.7,55.6,30.19,North,9,0.0,3.7,46,0.00,,,0.00,Meteorologica,2013-10-13 19:06:00,
2013-10-13 15:12:00,77.7,55.8,30.19,NE,38,0.0,5.5,46,0.00,,,0.00,Meteorologica,2013-10-13 19:12:00,
2013-10-13 15:17:00,77.9,55.2,30.19,NE,38,0.0,0.0,45,0.00,,,0.00,Meteorologica,2013-10-13 19:17:00,
2013-10-13 15:22:00,78.2,55.1,30.19,NNE,21,0.0,9.4,44,0.00,,,0.00,Meteorologica,2013-10-13 19:22:00,
2013-10-13 15:27:00,78.3,55.3,30.19,NNE,21,0.0,1.4,45,0.00,,,0.00,Meteorologica,2013-10-13 19:27:00,
2013-10-13 15:32:00,78.2,55.3,30.19,NNE,21,0.0,0.0,45,0.00,,,0.00,Meteorologica,2013-10-13 19:32:00,
2013-10-13 15:37:00,77.9,55.4,30.19,NNE,21,0.0,0.0,45,0.00,,,0.00,Meteorologica,2013-10-13 19:37:00,
2013-10-13 15:42:00,77.5,54.6,30.19,NE,56,2.1,4.0,45,0.00,,,0.00,Meteorologica,2013-10-13 19:42:00,
2013-10-13 15:47:00,77.8,55.3,30.19,NE,50,0.0,3.6,45,0.00,,,0.00,Meteorologica,2013-10-13 19:47:00,
2013-10-13 15:52:00,77.8,55.6,30.19,NE,38,0.0,1.2,46,0.00,,,0.00,Meteorologica,2013-10-13 19:52:00,
2013-10-13 15:57:00,77.8,54.9,30.18,NE,35,0.0,3.0,45,0.00,,,0.00,Meteorologica,2013-10-13 19:57:00,
2013-10-13 16:02:00,78.1,55.1,30.18,NE,35,0.0,0.0,45,0.00,,,0.00,Meteorologica,2013-10-13 20:02:00,
2013-10-13 16:07:00,78.2,55.8,30.18,NE,35,0.0,0.0,46,0.00,,,0.00,Meteorologica,2013-10-13 20:07:00,
2013-10-13 16:12:00,78.2,54.9,30.18,NNE,12,0.0,4.3,44,0.00,,,0.00,Meteorologica,2013-10-13 20:12:00,
2013-10-13 16:17:00,78.1,54.7,30.18,NNE,12,0.0,0.0,44,0.00,,,0.00,Meteorologica,2013-10-13 20:17:00,
2013-10-13 16:22:00,78.2,54.8,30.18,NE,35,0.0,2.2,44,0.00,,,0.00,Meteorologica,2013-10-13 20:22:00,
2013-10-13 16:27:00,78.3,54.5,30.18,North,9,0.2,2.7,43,0.00,,,0.00,Meteorologica,2013-10-13 20:27:00,
2013-10-13 16:32:00,78.2,54.8,30.18,NE,40,0.0,4.2,44,0.00,,,0.00,Meteorologica,2013-10-13 20:32:00,
2013-10-13 16:37:00,78.2,54.5,30.18,ENE,59,1.9,2.6,44,0.00,,,0.00,Meteorologica,2013-10-13 20:37:00,
2013-10-13 16:42:00,78.4,55.5,30.18,ENE,59,0.0,7.7,45,0.00,,,0.00,Meteorologica,2013-10-13 20:42:00,
2013-10-13 16:48:00,78.2,55.3,30.18,NNE,31,0.0,3.3,45,0.00,,,0.00,Meteorologica,2013-10-13 20:48:00,
2013-10-13 16:53:00,78.2,55.4,30.18,NE,42,0.0,2.4,45,0.00,,,0.00,Meteorologica,2013-10-13 20:53:00,
2013-10-13 16:58:00,78.3,55.3,30.18,NNE,14,0.0,3.8,45,0.00,,,0.00,Meteorologica,2013-10-13 20:58:00,
2013-10-13 17:03:00,78.2,55.3,30.18,NE,43,0.0,2.7,45,0.00,,,0.00,Meteorologica,2013-10-13 21:03:00,
2013-10-13 17:08:00,78.1,54.5,30.18,NE,38,1.0,2.9,44,0.00,,,0.00,Meteorologica,2013-10-13 21:08:00,
2013-10-13 17:13:00,78.0,54.6,30.18,NE,54,0.7,2.2,44,0.00,,,0.00,Meteorologica,2013-10-13 21:13:00,
2013-10-13 17:18:00,77.8,55.0,30.18,NNE,32,0.0,2.5,45,0.00,,,0.00,Meteorologica,2013-10-13 21:18:00,
2013-10-13 17:24:00,77.9,54.4,30.18,NE,56,0.8,3.8,44,0.00,,,0.00,Meteorologica,2013-10-13 21:24:00,
2013-10-13 17:29:00,77.7,54.4,30.18,NE,56,0.2,1.7,44,0.00,,,0.00,Meteorologica,2013-10-13 21:29:00,
2013-10-13 17:34:00,77.7,55.0,30.18,NE,56,0.0,1.2,45,0.00,,,0.00,Meteorologica,2013-10-13 21:34:00,
2013-10-13 17:39:00,77.3,54.5,30.17,NE,56,0.0,0.0,45,0.00,,,0.00,Meteorologica,2013-10-13 21:39:00,
2013-10-13 17:44:00,77.1,54.5,30.18,NE,56,0.0,0.0,45,0.00,,,0.00,Meteorologica,2013-10-13 21:44:00,
2013-10-13 17:49:00,77.1,54.8,30.18,NE,56,0.0,0.0,46,0.00,,,0.00,Meteorologica,2013-10-13 21:49:00,
2013-10-13 17:54:00,77.0,55.2,30.17,NE,56,0.0,0.0,46,0.00,,,0.00,Meteorologica,2013-10-13 21:54:00,
2013-10-13 17:59:00,76.8,55.9,30.18,NE,56,0.0,0.0,48,0.00,,,0.00,Meteorologica,2013-10-13 21:59:00,
2013-10-13 18:04:00,76.8,56.1,30.18,NE,56,0.0,0.0,48,0.00,,,0.00,Meteorologica,2013-10-13 22:04:00,
2013-10-13 18:09:00,76.5,56.3,30.18,NE,56,0.0,0.0,49,0.00,,,0.00,Meteorologica,2013-10-13 22:09:00,
2013-10-13 18:14:00,76.2,56.4,30.18,NE,56,0.0,0.0,50,0.00,,,0.00,Meteorologica,2013-10-13 22:14:00,
2013-10-13 18:20:00,76.0,56.3,30.18,NE,56,0.0,0.0,50,0.00,,,0.00,Meteorologica,2013-10-13 22:20:00,
2013-10-13 18:25:00,75.7,56.3,30.18,NE,56,0.0,0.0,50,0.00,,,0.00,Meteorologica,2013-10-13 22:25:00,
2013-10-13 18:30:00,75.6,56.6,30.18,NE,56,0.0,0.0,51,0.00,,,0.00,Meteorologica,2013-10-13 22:30:00,
2013-10-13 18:35:00,75.5,56.8,30.18,NE,56,0.0,0.0,52,0.00,,,0.00,Meteorologica,2013-10-13 22:35:00,
2013-10-13 18:40:00,75.2,56.7,30.18,NE,56,0.0,0.0,52,0.00,,,0.00,Meteorologica,2013-10-13 22:40:00,
2013-10-13 18:45:00,75.1,56.9,30.18,NE,56,0.0,0.0,53,0.00,,,0.00,Meteorologica,2013-10-13 22:45:00,
2013-10-13 18:50:00,74.8,57.4,30.18,NE,56,0.0,0.0,54,0.00,,,0.00,Meteorologica,2013-10-13 22:50:00,
2013-10-13 18:55:00,74.2,57.8,30.18,NE,56,0.0,0.0,56,0.00,,,0.00,Meteorologica,2013-10-13 22:55:00,
2013-10-13 19:00:00,73.8,58.0,30.18,NE,56,0.0,0.0,57,0.00,,,0.00,Meteorologica,2013-10-13 23:00:00,
2013-10-13 19:05:00,73.6,58.1,30.18,NE,56,0.0,0.0,58,0.00,,,0.00,Meteorologica,2013-10-13 23:05:00,
2013-10-13 19:10:00,73.1,58.4,30.18,NE,56,0.0,0.0,59,0.00,,,0.00,Meteorologica,2013-10-13 23:10:00,
2013-10-13 19:15:00,72.8,58.2,30.18,NE,56,0.0,0.0,59,0.00,,,0.00,Meteorologica,2013-10-13 23:15:00,
2013-10-13 19:20:00,72.4,58.7,30.19,NE,56,0.0,0.0,61,0.00,,,0.00,Meteorologica,2013-10-13 23:20:00,
2013-10-13 19:25:00,71.9,58.5,30.19,NE,56,0.0,0.0,62,0.00,,,0.00,Meteorologica,2013-10-13 23:25:00,
2013-10-13 19:30:00,71.8,58.6,30.19,NE,56,0.0,0.0,62,0.00,,,0.00,Meteorologica,2013-10-13 23:30:00,
2013-10-13 19:35:00,71.5,58.0,30.19,NE,56,0.0,0.0,62,0.00,,,0.00,Meteorologica,2013-10-13 23:35:00,
2013-10-13 19:40:00,71.5,58.4,30.19,NE,56,0.0,0.0,63,0.00,,,0.00,Meteorologica,2013-10-13 23:40:00,
2013-10-13 19:45:00,71.1,58.5,30.19,NE,56,0.0,0.0,63,0.00,,,0.00,Meteorologica,2013-10-13 23:45:00,
2013-10-13 19:51:00,70.8,58.8,30.20,NE,56,0.0,0.0,65,0.00,,,0.00,Meteorologica,2013-10-13 23:51:00,
2013-10-13 19:55:00,70.5,58.5,30.20,NE,56,0.0,0.0,65,0.00,,,0.00,Meteorologica,2013-10-13 23:55:00,
2013-10-13 20:01:00,70.3,58.2,30.20,NE,56,0.0,0.0,65,0.00,,,0.00,Meteorologica,2013-10-14 00:01:00,
2013-10-13 20:06:00,70.1,58.2,30.20,NE,56,0.0,0.0,65,0.00,,,0.00,Meteorologica,2013-10-14 00:06:00,
2013-10-13 20:12:00,69.9,58.2,30.20,NE,56,0.0,0.0,65,0.00,,,0.00,Meteorologica,2013-10-14 00:12:00,
2013-10-13 20:17:00,69.8,58.7,30.21,NE,56,0.0,0.0,67,0.00,,,0.00,Meteorologica,2013-10-14 00:17:00,
2013-10-13 20:22:00,69.6,58.3,30.21,NE,56,0.0,0.0,67,0.00,,,0.00,Meteorologica,2013-10-14 00:22:00,
2013-10-13 20:27:00,69.4,58.7,30.21,NE,56,0.0,0.0,68,0.00,,,0.00,Meteorologica,2013-10-14 00:27:00,
2013-10-13 20:32:00,69.3,58.9,30.21,NE,56,0.0,0.0,69,0.00,,,0.00,Meteorologica,2013-10-14 00:32:00,
2013-10-13 20:37:00,69.0,58.7,30.21,NE,56,0.0,0.0,69,0.00,,,0.00,Meteorologica,2013-10-14 00:37:00,
2013-10-13 20:42:00,68.9,59.0,30.21,NE,56,0.0,0.0,70,0.00,,,0.00,Meteorologica,2013-10-14 00:42:00,
2013-10-13 20:47:00,68.7,58.9,30.21,NE,56,0.0,0.0,70,0.00,,,0.00,Meteorologica,2013-10-14 00:47:00,
2013-10-13 20:52:00,68.6,59.4,30.22,NE,56,0.0,0.0,72,0.00,,,0.00,Meteorologica,2013-10-14 00:52:00,
2013-10-13 20:57:00,68.4,59.9,30.22,NE,56,0.0,0.0,74,0.00,,,0.00,Meteorologica,2013-10-14 00:57:00,
2013-10-13 21:02:00,68.2,60.1,30.22,NE,56,0.0,0.0,75,0.00,,,0.00,Meteorologica,2013-10-14 01:02:00,
2013-10-13 21:07:00,67.8,60.1,30.22,NE,56,0.0,0.0,76,0.00,,,0.00,Meteorologica,2013-10-14 01:07:00,
2013-10-13 21:12:00,67.4,60.2,30.22,NE,56,0.0,0.0,77,0.00,,,0.00,Meteorologica,2013-10-14 01:12:00,
2013-10-13 21:17:00,67.3,60.2,30.22,NE,56,0.0,0.0,77,0.00,,,0.00,Meteorologica,2013-10-14 01:17:00,
2013-10-13 21:22:00,67.3,60.5,30.22,NE,56,0.0,0.0,78,0.00,,,0.00,Meteorologica,2013-10-14 01:22:00,
2013-10-13 21:27:00,67.1,60.8,30.22,NE,56,0.0,0.0,80,0.00,,,0.00,Meteorologica,2013-10-14 01:27:00,
2013-10-13 21:32:00,67.0,61.4,30.22,NE,56,0.0,0.0,82,0.00,,,0.00,Meteorologica,2013-10-14 01:32:00,
2013-10-13 21:37:00,66.9,61.4,30.22,NE,56,0.0,0.0,82,0.00,,,0.00,Meteorologica,2013-10-14 01:37:00,
2013-10-13 21:42:00,66.9,61.7,30.23,NE,56,0.0,0.0,83,0.00,,,0.00,Meteorologica,2013-10-14 01:42:00,
2013-10-13 21:47:00,66.5,62.2,30.22,NE,56,0.0,0.0,86,0.00,,,0.00,Meteorologica,2013-10-14 01:47:00,
2013-10-13 21:52:00,66.4,62.5,30.22,NE,56,0.0,0.0,87,0.00,,,0.00,Meteorologica,2013-10-14 01:52:00,
2013-10-13 21:57:00,66.1,62.6,30.22,NE,56,0.0,0.0,88,0.00,,,0.00,Meteorologica,2013-10-14 01:57:00,
2013-10-13 22:03:00,66.1,62.7,30.22,NE,56,0.0,0.0,88,0.00,,,0.00,Meteorologica,2013-10-14 02:03:00,
2013-10-13 22:08:00,65.8,62.9,30.22,NE,56,0.0,0.0,90,0.00,,,0.00,Meteorologica,2013-10-14 02:08:00,
2013-10-13 22:13:00,65.7,63.0,30.22,NE,56,0.0,0.0,91,0.00,,,0.00,Meteorologica,2013-10-14 02:13:00,
2013-10-13 22:18:00,65.7,62.9,30.22,NE,56,0.0,0.0,90,0.00,,,0.00,Meteorologica,2013-10-14 02:18:00,
2013-10-13 22:23:00,65.6,63.1,30.22,NE,56,0.0,0.0,91,0.00,,,0.00,Meteorologica,2013-10-14 02:23:00,
2013-10-13 22:28:00,65.6,63.0,30.22,NE,56,0.0,0.0,91,0.00,,,0.00,Meteorologica,2013-10-14 02:28:00,
2013-10-13 22:33:00,65.2,62.2,30.22,NE,56,0.0,0.0,90,0.00,,,0.00,Meteorologica,2013-10-14 02:33:00,
2013-10-13 22:38:00,65.4,61.2,30.22,NE,56,0.0,0.0,86,0.00,,,0.00,Meteorologica,2013-10-14 02:38:00,
2013-10-13 22:43:00,65.6,61.0,30.22,NE,56,0.0,0.0,84,0.00,,,0.00,Meteorologica,2013-10-14 02:43:00,
2013-10-13 22:48:00,65.6,61.4,30.22,NE,56,0.0,0.0,86,0.00,,,0.00,Meteorologica,2013-10-14 02:48:00,
2013-10-13 22:53:00,65.7,61.0,30.22,NE,56,0.0,0.0,84,0.00,,,0.00,Meteorologica,2013-10-14 02:53:00,
2013-10-13 22:58:00,65.6,60.5,30.23,NE,56,0.0,0.0,83,0.00,,,0.00,Meteorologica,2013-10-14 02:58:00,
2013-10-13 23:03:00,65.6,60.4,30.23,NE,56,0.0,0.0,83,0.00,,,0.00,Meteorologica,2013-10-14 03:03:00,
2013-10-13 23:08:00,65.4,60.7,30.23,NE,56,0.0,0.0,84,0.00,,,0.00,Meteorologica,2013-10-14 03:08:00,
2013-10-13 23:13:00,65.4,61.2,30.23,NE,56,0.0,0.0,86,0.00,,,0.00,Meteorologica,2013-10-14 03:13:00,
2013-10-13 23:18:00,65.2,61.4,30.22,NE,56,0.0,0.0,87,0.00,,,0.00,Meteorologica,2013-10-14 03:18:00,
2013-10-13 23:23:00,64.9,61.7,30.22,NE,56,0.0,0.0,89,0.00,,,0.00,Meteorologica,2013-10-14 03:23:00,
2013-10-13 23:28:00,64.7,61.7,30.22,NE,56,0.0,0.0,90,0.00,,,0.00,Meteorologica,2013-10-14 03:28:00,
2013-10-13 23:33:00,64.8,61.7,30.22,NE,56,0.0,0.0,89,0.00,,,0.00,Meteorologica,2013-10-14 03:33:00,
2013-10-13 23:38:00,64.7,61.5,30.23,NE,56,0.0,0.0,89,0.00,,,0.00,Meteorologica,2013-10-14 03:38:00,
2013-10-13 23:43:00,64.9,61.4,30.23,NE,56,0.0,0.0,88,0.00,,,0.00,Meteorologica,2013-10-14 03:43:00,
2013-10-13 23:48:00,65.2,61.3,30.22,NE,56,0.0,0.0,87,0.00,,,0.00,Meteorologica,2013-10-14 03:48:00,
2013-10-13 23:53:00,65.4,61.1,30.22,NE,56,0.0,0.0,86,0.00,,,0.00,Meteorologica,2013-10-14 03:53:00,